Regional Weather Roundup
Issued by NWS

Home | Current Version | Previous Version | Graphics & Text | Print | Product List | Glossary On
Versions: 1 2 3 4 5 6 7 8 9 10 11 12 13 14 15 16 17 18 19 20 21 22 23 24 25 26 27 28 29 30 31 32 33 34 35 36 37 38 39 40 41 42 43 44 45 46 47 48 49 50
000
ASUS45 KBOU 032107
RWRCO

WEATHER ROUNDUP FOR COLORADO
NATIONAL WEATHER SERVICE DENVER/BOULDER CO
300 PM MDT THU SEP 03 2015

NOTE: "FAIR" INDICATES FEW OR NO CLOUDS BELOW 12000 FEET WITH NO
SIGNIFICANT WEATHER AND/OR OBSTRUCTIONS TO VISIBILITY.

COZ001>005-013-030-031-032200-
...NORTHWEST COLORADO...

CITY           SKY/WX    TMP DP  RH WIND       PRES   REMARKS
CRAIG          CLOUDY    76  46  34 SW12      30.09R
HAYDEN         CLOUDY    72  43  35 SW14      30.12R
MEEKER         CLOUDY    70  49  47 S12       30.11F
MOUNT WERNER   NOT AVBL
STEAMBOAT SPGS CLOUDY    63  48  56 SE20G28   30.15R
WALDEN         CLOUDY    59  41  51 S13       30.21S
$$

COZ006>008-011-032200-
...WEST CENTRAL VALLEYS...

CITY           SKY/WX    TMP DP  RH WIND       PRES   REMARKS
GRAND JUNCTION SUNNY     81  50  33 SE18G28   30.01F
MONTROSE       MOSUNNY   73  52  47 CALM      30.14F
EAGLE          PTSUNNY   61  54  77 E6        30.24F
RIFLE          CLOUDY    64  57  78 E7        30.13F
DELTA          MOSUNNY   79  53  41 E8        30.08F HAZE
NUCLA          MOSUNNY   81  41  24 CALM      30.10F
$$

COZ017>023-064>068-032200-
...SOUTHWEST COLORADO...

CITY           SKY/WX    TMP DP  RH WIND       PRES   REMARKS
DURANGO        SUNNY     77  43  29 W9        30.12F
CORTEZ         MOSUNNY   79  45  29 W7        30.09F
PAGOSA SPRINGS PTSUNNY   67  50  53 NE9       30.23F
TELLURIDE      CLOUDY    61  49  64 CALM      30.34F
WOLF CREEK PAS NOT AVBL
$$

COZ009-010-012-014-032>034-037-058>063-032200-
...CENTRAL COLORADO...

CITY           SKY/WX    TMP DP  RH WIND       PRES   REMARKS
ASPEN          LGT RAIN  61  47  59 NW5       30.27F
BUENA VISTA    PTSUNNY   61  51  70 N3        30.24F
COPPER MTN     CLOUDY    46  41  81 W10       30.51S
BERTHOUD PASS  HAZE      36  27  69 NW15G24   30.53F VSB 1/2
COTTONWOOD PAS CLOUDY    59  48  67 N5        30.36F
GUNNISON       PTSUNNY   63  46  55 CALM      30.28F
KREMMLING      LGT RAIN  54  48  82 CALM      30.27S
LEADVILLE      LGT RAIN  51  45  79 W3        30.36F
MONARCH PASS   CLOUDY    45  41  87 W17G24    30.60S
SALIDA         PTSUNNY   67  48  49 N7        30.29S
SUNLIGHT       LGT RAIN  52  50  93 CALM      30.46F
WILKERSON PASS LGT RAIN  50  43  76 W3        30.46F
$$

COZ069>075-032200-
...SAN LUIS VALLEY/SANGRE DE CRISTO MOUNTAINS...

CITY           SKY/WX    TMP DP  RH WIND       PRES   REMARKS
ALAMOSA        LGT RAIN  70  47  43 SW14      30.18F
LA VETA PASS   PTSUNNY   64  41  42 SW6G16    30.36F
SAGUACHE       LGT RAIN  54  48  82 NW21G29   30.26R
$$

COZ035-036-038>040-032200-
...NORTHERN COLORADO FRONT RANGE...

CITY           SKY/WX    TMP DP  RH WIND       PRES   REMARKS
DENVER INTL AP PTSUNNY   86  42  21 NE10      29.98F
DMNS CITY PARK   N/A     83  43  24 E7G15     29.98S
AURORA         PTSUNNY   82  43  25 NE7       30.00F
FRONT RANGE AP PTSUNNY   82  41  23 MISG      30.00F
ERIE MUNI ARPT PTSUNNY   83  39  21 CALM      29.98R
BOULDER MUN AP CLOUDY    77  46  33 SW26G33   30.03R
CENTENNIAL     PTSUNNY   81  44  27 N6        30.02F
BROOMFIELD     NOT AVBL
FORT COLLINS   PTSUNNY   81  48  32 W16       29.97S
LONGMONT       PTSUNNY   80  49  32 NW17G23   29.99F
$$

COZ041-046-047-076>085-087-088-032200-
...PIKES PEAK/PALMER DIVIDE AND SOUTHERN FOOTHILLS...

CITY           SKY/WX    TMP DP  RH WIND       PRES   REMARKS
COLO. SPRINGS  PTSUNNY   83  44  25 E12       30.04F
A. F. ACADEMY  CLOUDY    78  42  27 NW9       30.06F
ELLICOTT       PTSUNNY  N/A N/A N/A NE10G16   30.01F
FALCON         PTSUNNY   79  42  26 MISG      30.10F
FORT CARSON    CLOUDY    82  44  26 VRB3      30.00F
LIMON          MOSUNNY   83  47  28 N8G21     29.96F
MONUMENT HILL  MOSUNNY   73  41  31 NE7       30.11F
TRINIDAD       CLOUDY    86  40  19 W9        29.98F
$$

COZ042>045-048>051-090-091-032200-
...NORTHEAST COLORADO...

CITY           SKY/WX    TMP DP  RH WIND       PRES   REMARKS
GREELEY ARPT   PTSUNNY   84  46  26 SE9       29.95F
AKRON          PTSUNNY   90  42  18 NW10G20   29.92F
BURLINGTON     PTSUNNY   91  48  22 SE7       29.87F
WRAY           CLOUDY    97  39  13 S6        29.84F
STERLING       PTSUNNY   91  46  21 NW14G21   29.86F
HOLYOKE        PTSUNNY   95  50  21 S6        29.84F
FORT MORGAN    PTSUNNY   89  41  18 N6        29.93F
$$

COZ086-089-092>099-032200-
...SOUTHEAST COLORADO...

CITY           SKY/WX    TMP DP  RH WIND       PRES   REMARKS
PUEBLO         PTSUNNY   92  41  17 NE3       29.89F
LA JUNTA       PTSUNNY   94  43  17 SE5       29.84F
LAMAR          CLOUDY    97  48  18 S12       29.79F
SPRINGFIELD      N/A     95  43  16 S22G31    29.88F
$$



USA.gov is the U.S. government's official web portal to all federal, state and local government web resources and services.